Погода Молчаново

Погода Молчаново : погода сейчас, прогноз погоды и архив. Всё, что Вы хотите узнать о погоде Молчаново!

Поиск расширенной информации на нашем сайте:

Другие новости

Новости СМИ2

Главная страница сайта

Новости сайта

02.10.2013

Напоминаем, что на нашем новом сайте вы можете получить высокодетализированные прогнозы погоды по пунктам России, СНГ и мира (включающие важные для авиации метеовеличины, такие как направление и скорость ветра, видимость, явления погоды, количество и форма облачности, нижняя и верхняя граница облачности), а также ознакомиться с разнообразными материалами по авиационной метеорологии и подборкой полезных ссылок на эту тему.

Сайт Метеоцентр.Азия посвящён разработке технологий оптимизации авиаметеорологического обслуживания, включая проектирование и перспективное создание нескольких автоматизированных авиаметеорологических систем:
- система выпуска высокодетальных прогностических карт явлений погоды для нижнего воздушного пространства по России и ближнему зарубежью;
- система верификации прогнозов TAF (выпускаемых синоптиками официальных АМСГ РФ и ближнего зарубежья) и AUTOTAF (выпускаемых сайтом Метеоцентр.Азия) - выявление ошибок, онлайн-сопоставление с фактической погодой METAR, автоматическое внесение коррективов в прогнозы при резком отклонении фактической погоды от прогноза, подсчёт оправдываемости прогнозов по элементам и в целом;
- система обработки, анализа и отображения авиаметеорологической информации для применения провайдерами метеорологической информации.

Рекомендуем: Запчасти для экскаваторов спецтехнике в продаже запчасти.

Погода Молчаново - сегодня

Время (UTC), дата Ветер
(°,м/с) 
Видим.   Явления Облачность Т
(°С)
Тd
(°С)
f(%) Тe
(°С)
Pmin
(гПа)
dP
(гПа)
Po
(мм)
O2
(г/м3)
Тmin Tmax R s Состояние
почвы
09 17.02.17 320 (СЗ) 20000 м    10/0 верхняя 
[Ci fib]
-11.6 -19 54 -11  1014.4  -1.7  750  317           
12 17.02.17 260 (З) 20000 м    3/0 средняя 
[Ac trans]
-13.5 -19 63 -13  1014.5  750  319    -10.7       
15 17.02.17 230 (ЮЗ) 20000 м    3/0 верхняя 
[Ci fib]
-16.7 -19.2 81 -19  1016.5  1.9  751  324           
18 17.02.17 220 (ЮЗ) 20000 м    3/0 верхняя 
[Ci fib]
-16.4 -17.9 88 -20  1018.7  2.1  753  324           
21 17.02.17 210 (ЮЗ) 20000 м    ясно 
-15.7 -17.5 86 -19  1020.1  1.4  754  324           
00 18.02.17 220 (ЮЗ) 20000 м    ясно 
-15.6 -17.5 85 -20  1020.7  0.6  754  324  -19.3      57  неравномерный
сухой снег
100% 
03 18.02.17 210 (ЮЗ) 5{10}  20000 м    3/0 верхняя 
[Ci fib]
-16 -18.2 83 -22  1021.4  0.7  755  324           
06 18.02.17 210 (ЮЗ) 5{10}  20000 м    10/0 верхняя 
[Ci fib]
-9.1 -13.3 72 -14  1020.8  -0.2  755  316           
09 18.02.17 210 (ЮЗ) 6-11{11}  20000 м    10/0 средняя, верхняя 
[Ac trans|Ci fib]
-7.1 -15.2 52 -12  1020.8  0.1  755  313           
12 18.02.17 200 (Ю) 6{13}  20000 м    10/0 средняя, верхняя 
[Ac trans|Ci fib]
-7.5 -14.8 56 -12  1020.6  -0.2  754  314    -6.7       
15 18.02.17 200 (Ю) 4{12}  20000 м    6/0 верхняя 
[Ci fib]
-10.4 -15.5 66 -14  1020.6  -0.2  754  317           
18 18.02.17 210 (ЮЗ) 5{10}  20000 м    3/0 верхняя 
[Ci fib]
-12.3 -16.9 69 -17  1020.7  754  320           
21 18.02.17 210 (ЮЗ) 20000 м    ясно 
-15 -18.7 73 -21  1020.9  0.1  754  323           
00 19.02.17 210 (ЮЗ) 20000 м    3/0 верхняя 
[Ci fib]
-17.1 -19.9 79 -22  1020.2  -0.8  754  326  -17.1      57  неравномерный
сухой снег
100% 
03 19.02.17 190 (Ю) 20000 м    3/0 верхняя 
[Ci fib]
-17.4 -19.8 82 -21  1020.6  0.3  754  326  -17.9         
06 19.02.17 200 (Ю) 20000 м    6/0 верхняя 
[Ci fib]
-11.6 -16.1 69 -15  1019.5  -0.7  753  318           
09 19.02.17 190 (Ю) 20000 м    10/0 средняя, верхняя 
[Ac trans|Ci fib]
-9.9 -17.2 55 -12  1018.1  -1.3  752  316           
12 19.02.17 170 (Ю) 20000 м    10/0 средняя, верхняя 
[Ac trans|Ci fib]
-11.2 -17.1 62 -11  1017.3  -0.8  752  317    -9.7       
15 19.02.17 140 (ЮВ) 20000 м    10/0 средняя, верхняя 
[Ac trans|Ci fib]
-11.7 -15.8 72 -12  1016.7  -0.6  751  318           
18 19.02.17 200 (Ю) 4000 м  слаб. ливневой снег  10/3 300 м кучево-дожд., средняя, верхняя 
[Cb calv|Ac trans|Ci fib]
-12.2 -14.3 84 -16  1016.8  751  318           
21 19.02.17 180 (Ю) 4000 м  слаб. ливневой снег  10/3 300 м кучево-дожд., средняя, верхняя 
[Cb calv|Ac trans|Ci fib]
-12.2 -14.7 82 -16  1016.6  0.2  751  318           
00 20.02.17 180 (Ю) 4-10{10}  4000 м  слаб. ливневой снег  10/4 300 м кучево-дожд., средняя, верхняя 
[Cb calv|Ac trans|Ci fib]
-14 -16.4 82 -19  1016.5  -0.2  751  320  -14.2    0.3  57  неравномерный
сухой снег
100% 
03 20.02.17 160 (Ю) 4-10{10}  20000 м  слаб. ливневой снег  10/3 300 м кучево-дожд., верхняя 
[Cb calv|Ci fib]
-14.2 -17.3 77 -19  1015.1  -1.4  750  320  -14.6         
06 20.02.17 150 (ЮВ) 4-11{11}  4000 м  слаб. ливневой снег  10/4 300 м кучево-дожд., средняя, верхняя 
[Cb calv|Ac trans|Ci fib]
-10.9 -14.8 73 -15  1012.7  -2.1  749  315           
09 20.02.17 140 (ЮВ) 4{11}  4000 м  слаб. ливневой снег  10/3 300 м кучево-дожд., средняя 
[Cb calv|Ac As]
-8.9 -11.8 79 -13  1009.2  -3.4  746  312           
Время (UTC), дата Ветер
(°,м/с) 
Видим.   Явления Облачность Т
(°С)
Тd
(°С)
f(%) Тe
(°С)
Pmin
(гПа)
dP
(гПа)
Po
(мм)
O2
(г/м3)
Тmin Tmax R s Состояние
почвы

Для получения пояснительной информации подведите курсор к названию столбца.

ПОГОДА Молчаново - архив

Всё, что Вы хотите узнать о погоде Молчаново - удобно и подробно!

Выберите нужную дату (начиная с 1 января 2015* года) и нажмите кнопку "Найти".
Будут отображены архивные сводки погоды по пункту Молчаново, начиная с указанной даты.


Отображать данные в формате CSV (для использования в таблицах Excel)


Внимание! Наш архив погоды предназначен исключительно для личного некоммерческого использования в познавательных целях. Если Вам необходимы официальные справки о состоянии погоды (для производственных, юридических, коммерческих и т.п. целей), обращайтесь в органы Росгидромета.

*Примечание: данная дата относится к архиву по метеостанциям СССР (Россия, СНГ, Балтия).
Архив по метеостанциям Зарубежной Европы и Азии (кроме Китая) хранится 10 дней, по другим регионам земного шара (Китай, Африка, Америка, Австралия, Океания) - 1 день.

Молчаново - район местоположения метеостанции


Название, широта, долгота, высота метеостанции:
Молчаново 57.6°ш. 83.8°д. 114 м над ур. моря [Российская Федерация]

Дополнительная информация

В oтличие oт бoльшинства пoгoдных сайтoв мы публикуем пoдрoбную метеoинфoрмацию в детальнoм прoфессиoнальнoм фoрмате.

Характеристики температуры и влажнoсти вoздуха измеряются на высoте 2 м в тени вдали oт зданий и деревьев.
Скoрoсть ветра измеряется на высoте 10 м (на урoвне рoста челoвека скoрoсть ветра ниже в 1.5-2 раза). Если метеoстанция нахoдится в гoрoде или в лесу, тo скoрoсть ветра занижена на 2-4 м/с пo сравнению с oткрытым местoм. Скoрoсть ветра над акватoриями крупных рек и oзёр, а также на вершинах хoлмoв на 2-5 м/с выше, чем в oбычных услoвиях.
Атмoсфернoе давление в разных тoчках местнoсти мoжет значительнo oтличаться oт давления на метеoстанции, в зависимoсти oт услoвий рельефа (при пoдъёме на 10 м давление пoнижается примернo на 1 мм рт.ст.).